Temp
42 42 42 42 43 43 42 43 42 43 43 44 46 45 44 45 48 50 51 53 55 56 57 57 56 57 54 53 52 51 50 48 45 34 37 37 39 38 38 41 40 42 43
41 41 40 41 41 41 41 41 42 40 41 42 43 42 41 43 46 47 47 50 52 54 56 56 56 55 53 52 49 49 49 49 40 34 34 34 36 38 37 37 39 41 40
40 39 38 39 39 39 40 41 41 40 40 40 40 38 39 41 43 46 48 48 50 53 56 56 56 54 50 49 47 47 48 44 43 37 32 34 33 37 33 34 35 36 38
38 37 37 38 39 40 40 38 37 38 37 37 38 39 38 39 42 43 46 46 47 52 53 56 56 54 51 48 46 45 45 40 37 38 34 34 34 32 33 31 30 33 33
36 36 37 39 39 37 36 36 37 37 37 37 37 38 39 40 42 42 45 45 45 48 48 54 54 51 45 47 46 44 40 39 38 36 33 32 30 30 31 32 32 32 31
35 35 36 37 36 35 35 35 35 36 36 37 36 37 38 40 42 43 43 43 44 45 45 50 47 40 42 43 43 43 42 40 37 37 35 34 33 32 33 32 32 29 27
34 34 35 35 34 34 35 35 34 35 37 35 35 37 37 39 42 42 41 43 44 44 44 41 40 42 41 42 41 41 41 43 43 41 37 37 33 33 33 32 32 32 31
33 33 33 33 33 33 33 33 34 35 34 34 34 36 37 39 41 41 40 41 42 41 41 40 40 39 39 38 37 36 35 36 37 36 39 36 35 35 36 35 33 29 27
32 32 33 33 33 33 33 33 33 33 33 33 34 35 36 37 40 41 40 37 36 36 37 39 38 38 38 40 36 33 33 33 38 38 38 38 37 36 34 33 30 30 26
32 32 33 33 33 33 33 33 33 33 33 33 33 34 35 37 40 40 37 35 34 34 34 34 35 36 38 39 36 34 31 31 32 32 33 35 34 34 36 34 32 31 29
33 33 33 33 32 33 33 33 33 33 33 33 33 33 34 35 37 39 38 34 34 33 33 33 35 38 38 38 37 34 32 32 33 30 30 30 29 29 30 31 33 33 30
33 32 33 33 33 33 33 33 33 33 33 33 32 32 33 34 36 38 38 37 37 33 33 34 36 37 37 36 34 35 35 33 31 30 29 28 28 28 28 29 29 29 28
33 32 33 33 33 33 33 33 34 34 33 33 32 31 31 32 33 37 37 36 36 33 34 34 35 35 35 35 35 34 32 31 31 29 27 27 27 27 27 26 26 26 26
33 33 33 33 33 33 33 33 32 33 33 33 32 32 32 32 32 33 33 33 33 33 33 32 33 33 32 31 30 31 31 31 30 29 27 27 28 29 28 29 28 27 27
33 33 33 33 33 32 33 33 32 32 33 32 31 32 31 30 31 33 33 32 32 32 32 31 30 29 28 29 30 30 31 31 30 30 29 28 28 28 27 27 27 26 25
33 33 33 34 34 34 33 32 35 35 35 35 34 33 32 34 34 34 34 34 34 34 31 29 28 28 27 27 27 26 27 28 28 28 28 27 26 26 25 26 26 25 23
32 32 34 33 33 33 34 33 31 34 35 34 34 34 34 34 33 34 34 34 34 33 28 27 27 27 27 26 25 24 24 25 27 26 25 26 25 24 22 21 21 20 18
30 27 33 32 33 32 32 31 32 31 29 28 33 34 35 35 35 35 35 34 29 30 28 27 26 27 26 25 24 23 22 20 19 18 17 17 18 18 15 13 11 9 9
31 32 31 31 31 30 31 31 31 31 30 29 29 29 30 33 33 33 32 27 26 25 25 24 24 23 21 20 18 16 15 15 14 13 12 13 13 11 10 9 5 3 6
30 27 29 31 31 30 30 28 29 29 29 28 27 27 28 26 25 25 25 24 22 21 20 18 17 17 16 16 15 15 14 12 11 11 10 10 11 10 7 6 4 4 1
31 27 27 31 30 30 29 28 28 28 27 26 24 26 27 23 21 20 19 19 17 16 15 14 14 14 14 14 13 12 10 10 9 9 8 8 7 6 5 4 1 -2 -2
31 29 29 30 28 28 28 28 27 27 26 23 21 22 23 18 17 15 14 13 13 13 14 13 11 11 12 12 12 10 9 8 8 7 5 3 5 3 2 0 0 -1 -2
31 29 29 27 28 26 27 26 25 25 22 19 18 17 16 15 13 12 11 10 10 10 11 10 8 7 8 9 11 11 9 8 7 6 5 2 2 1 1 0 -3 -4 -4
30 29 27 26 25 26 25 24 23 19 18 18 17 15 13 12 11 9 9 9 9 8 8 7 6 5 4 7 8 7 5 5 3 2 2 2 0 -3 -0 -3 -3 -6 -6
30 28 26 25 25 24 22 18 17 17 17 16 15 13 11 10 9 8 7 7 6 5 4 5 5 3 3 2 2 3 2 1 -0 1 -2 0 0 -2 -4 -5 -6 -6 -7
30 29 27 26 24 22 20 18 17 17 15 14 12 11 10 9 9 8 6 6 5 4 3 3 3 2 2 2 1 1 7 6 -0 -0 0 2 0 -1 -2 -5 -6 -6 -7
MSLP
1008.79 1008.21 1007.56 1006.91 1006.48 1006.04 1005.37 1004.86 1004.60 1004.22 1003.91 1003.57 1003.32 1003.18 1003.43 1003.11 1002.96 1002.59 1002.30 1002.04 1001.78 1001.89 1002.03 1002.22 1002.92 1003.83 1004.80 1005.98 1006.96 1007.97 1008.87 1009.72 1010.74 1013.45 1014.06 1014.69 1015.36 1015.70 1017.03 1017.62 1018.30 1018.74 1019.50
1008.27 1007.69 1006.98 1006.28 1005.71 1004.98 1004.30 1003.79 1003.41 1003.33 1003.15 1002.70 1002.61 1002.64 1002.60 1002.44 1002.48 1002.39 1002.18 1001.87 1001.53 1001.22 1001.18 1001.52 1001.89 1003.10 1004.08 1005.06 1006.14 1007.11 1008.05 1008.92 1010.23 1012.47 1013.70 1014.24 1014.74 1015.43 1016.12 1017.01 1017.83 1018.43 1018.98
1007.83 1007.21 1006.35 1005.75 1005.02 1004.23 1003.54 1002.88 1002.34 1002.00 1001.78 1001.64 1001.57 1001.61 1001.64 1001.72 1001.63 1001.54 1001.58 1001.52 1001.29 1000.97 1000.62 1000.66 1001.13 1002.15 1003.46 1004.39 1005.48 1006.60 1007.53 1008.56 1009.46 1010.99 1012.49 1013.22 1014.37 1014.95 1016.03 1016.96 1017.61 1018.31 1018.96
1007.50 1006.59 1005.78 1005.17 1004.51 1003.75 1002.83 1002.08 1001.50 1000.96 1000.55 1000.34 1000.25 1000.36 1000.67 1000.88 1000.90 1001.00 1000.87 1000.88 1000.89 1000.50 1000.25 999.94 1000.41 1001.15 1002.53 1003.92 1005.18 1006.22 1007.24 1008.37 1009.28 1010.25 1011.50 1012.75 1013.44 1014.65 1015.30 1016.15 1017.47 1017.84 1018.69
1006.95 1006.04 1005.32 1004.60 1003.69 1002.88 1002.11 1001.27 1000.49 999.78 999.21 999.02 999.10 999.29 999.60 999.87 999.92 999.96 1000.10 1000.29 1000.52 1000.19 1000.09 999.52 999.60 1000.61 1001.90 1003.40 1004.46 1005.65 1006.78 1007.98 1008.91 1010.09 1011.03 1012.18 1013.30 1014.19 1013.79 1014.78 1016.13 1017.46 1018.36
1006.52 1005.63 1005.21 1004.28 1003.44 1002.42 1001.43 1000.61 999.73 998.80 998.00 997.84 998.14 998.43 998.75 998.96 999.05 999.34 999.65 999.95 1000.14 1000.06 1000.06 999.76 999.75 1000.85 1001.96 1003.07 1003.97 1005.02 1005.86 1006.89 1008.18 1009.05 1009.90 1010.59 1011.65 1012.62 1013.49 1014.21 1015.30 1016.63 1017.98
1006.23 1005.69 1005.09 1004.09 1003.10 1002.04 1001.24 1000.26 999.35 998.41 997.47 997.40 997.67 997.90 998.17 998.36 998.52 998.90 999.39 999.67 999.73 999.94 999.98 999.50 1000.34 1001.22 1002.13 1003.12 1004.18 1005.01 1005.79 1006.02 1006.46 1007.41 1008.10 1009.11 1010.35 1011.01 1012.35 1013.41 1014.26 1014.93 1016.11
1006.09 1005.62 1004.98 1004.09 1003.14 1002.18 1001.24 1000.42 999.46 998.55 998.09 997.83 997.72 997.78 997.90 998.02 998.30 998.58 998.85 999.14 999.49 999.77 1000.01 999.53 1000.54 1001.70 1002.47 1003.31 1004.54 1005.50 1006.36 1006.74 1007.14 1007.63 1008.07 1008.69 1009.28 1010.73 1011.37 1012.12 1013.67 1015.45 1016.74
1005.95 1005.51 1004.99 1004.16 1003.25 1002.41 1001.45 1000.79 999.93 999.08 998.50 998.03 997.73 997.73 997.75 997.81 997.91 998.13 998.56 998.94 999.33 999.67 999.64 999.91 1000.80 1001.84 1002.73 1003.44 1004.69 1005.81 1006.85 1007.43 1007.75 1008.02 1008.48 1009.07 1009.68 1010.67 1012.06 1012.87 1014.14 1015.30 1016.89
1006.10 1005.58 1005.14 1004.39 1003.61 1002.69 1001.74 1001.13 1000.45 999.72 999.11 998.55 998.02 997.72 997.73 997.72 997.64 997.75 998.35 998.93 999.70 999.79 1000.02 1000.86 1001.48 1002.22 1002.91 1003.75 1004.60 1005.64 1006.86 1007.91 1007.88 1008.89 1010.00 1010.09 1010.56 1011.04 1012.37 1012.87 1013.74 1014.79 1016.24
1006.13 1005.76 1005.24 1004.59 1003.82 1002.94 1002.13 1001.51 1000.82 1000.17 999.52 999.03 998.64 998.38 998.31 998.31 998.31 998.46 998.54 999.29 999.89 1000.34 1000.90 1001.93 1002.63 1002.96 1003.70 1004.32 1005.04 1006.12 1006.83 1007.91 1009.02 1009.67 1010.21 1010.93 1011.30 1012.24 1013.51 1013.96 1014.53 1014.68 1015.47
1006.10 1005.88 1005.38 1004.75 1003.98 1003.30 1002.52 1002.00 1001.35 1000.66 1000.26 999.94 999.59 999.42 999.39 999.33 999.36 999.44 999.69 999.82 1000.52 1000.82 1001.97 1002.74 1003.26 1003.74 1004.42 1005.14 1006.00 1006.77 1007.61 1008.40 1009.14 1010.11 1010.72 1011.66 1012.43 1013.57 1014.63 1015.11 1015.32 1015.58 1015.85
1006.15 1006.18 1005.58 1004.98 1004.32 1003.69 1003.02 1002.56 1001.77 1001.50 1000.95 1000.60 1000.43 1000.36 1000.30 1000.19 1000.39 1000.47 1000.62 1000.94 1001.27 1001.98 1002.84 1003.51 1004.31 1005.04 1005.78 1006.39 1006.91 1007.79 1008.59 1009.24 1010.28 1010.73 1011.38 1012.66 1013.47 1014.40 1014.93 1015.32 1015.92 1016.34 1016.92
1006.37 1006.44 1005.89 1005.40 1004.91 1004.16 1003.63 1003.31 1002.80 1002.44 1001.70 1001.51 1001.70 1001.81 1001.87 1001.91 1002.11 1002.17 1001.94 1002.09 1002.57 1003.39 1004.33 1005.06 1005.78 1006.32 1006.88 1007.52 1008.43 1009.17 1009.80 1010.22 1010.69 1011.43 1012.46 1013.63 1014.20 1014.42 1014.98 1015.64 1016.26 1016.65 1017.08
1006.76 1006.70 1006.36 1005.97 1005.60 1005.06 1004.66 1004.33 1003.99 1003.61 1003.10 1002.88 1002.78 1002.84 1002.95 1003.12 1003.41 1003.27 1003.18 1003.65 1004.18 1004.74 1005.01 1005.93 1006.69 1007.26 1008.16 1009.46 1010.00 1010.44 1010.88 1011.08 1011.56 1012.43 1013.02 1014.05 1014.66 1015.18 1015.78 1016.01 1016.54 1016.99 1017.52
1007.04 1006.97 1006.74 1006.42 1006.07 1005.67 1005.50 1005.44 1005.27 1004.90 1004.46 1004.14 1004.00 1003.96 1004.33 1004.46 1004.54 1004.59 1004.79 1005.12 1005.38 1005.61 1006.05 1006.97 1008.02 1009.09 1010.09 1010.69 1011.08 1011.39 1011.82 1012.30 1013.02 1013.46 1013.88 1014.97 1015.66 1015.86 1016.45 1016.97 1017.34 1018.06 1018.63
1007.08 1007.14 1006.92 1006.88 1006.63 1006.43 1006.10 1006.04 1006.02 1006.15 1005.87 1005.84 1005.77 1005.67 1005.64 1005.58 1005.70 1005.81 1005.98 1006.31 1006.74 1006.90 1007.74 1009.05 1009.92 1010.72 1011.25 1011.78 1012.28 1012.76 1013.32 1013.89 1014.30 1014.62 1015.23 1015.91 1016.37 1016.95 1017.38 1018.32 1018.75 1018.95 1019.24
1006.99 1007.17 1007.14 1007.14 1007.01 1006.89 1006.76 1006.75 1006.83 1006.85 1006.95 1007.26 1007.26 1007.03 1006.98 1006.96 1007.04 1007.18 1007.27 1007.28 1008.09 1008.84 1009.69 1010.59 1011.27 1011.83 1012.40 1013.08 1013.67 1014.21 1014.95 1015.46 1015.72 1016.22 1016.75 1017.23 1017.61 1018.22 1018.93 1019.47 1019.98 1020.56 1021.31
1006.82 1007.01 1007.13 1007.33 1007.40 1007.41 1007.44 1007.30 1007.43 1007.75 1007.86 1007.97 1008.06 1008.14 1008.25 1008.14 1008.17 1008.43 1008.71 1009.18 1010.15 1011.00 1011.68 1012.21 1012.78 1013.35 1013.90 1014.33 1014.75 1015.17 1015.71 1016.41 1017.07 1017.70 1018.39 1019.07 1019.61 1019.98 1020.52 1021.11 1021.59 1021.86 1022.16
1006.63 1006.89 1007.06 1007.40 1007.62 1007.78 1007.98 1008.09 1008.10 1008.28 1008.57 1008.87 1009.09 1009.41 1009.32 1009.26 1009.71 1010.38 1010.84 1011.32 1011.86 1012.50 1013.15 1013.63 1014.23 1014.66 1015.04 1015.47 1016.13 1016.81 1017.46 1018.14 1018.79 1019.34 1019.81 1020.10 1020.34 1020.68 1021.19 1021.73 1022.27 1022.84 1023.25
1006.34 1006.69 1006.93 1007.27 1007.70 1007.90 1008.20 1008.51 1008.85 1009.05 1009.44 1009.84 1010.32 1010.40 1010.38 1010.72 1011.46 1011.99 1012.51 1013.00 1013.48 1014.07 1014.58 1015.07 1015.66 1016.16 1016.63 1017.07 1017.46 1017.94 1018.52 1019.12 1019.54 1019.89 1020.25 1020.60 1021.06 1021.57 1022.02 1022.50 1023.06 1023.56 1024.00
1006.06 1006.37 1006.82 1007.07 1007.64 1008.10 1008.40 1008.80 1009.24 1009.68 1010.16 1010.83 1011.48 1011.82 1012.03 1012.34 1012.95 1013.52 1014.11 1014.72 1015.19 1015.54 1015.99 1016.41 1016.97 1017.44 1017.70 1017.94 1018.32 1018.69 1019.16 1019.71 1020.20 1020.59 1021.03 1021.35 1021.71 1022.16 1022.59 1023.09 1023.46 1024.03 1024.24
1005.59 1006.12 1006.51 1007.13 1007.55 1008.20 1008.63 1009.10 1009.59 1010.12 1010.85 1011.55 1012.12 1012.60 1013.21 1013.86 1014.52 1015.18 1015.75 1016.20 1016.55 1016.81 1017.11 1017.38 1017.79 1018.31 1018.69 1018.84 1018.99 1019.31 1019.72 1020.24 1020.51 1020.78 1021.33 1021.94 1022.36 1022.77 1022.94 1023.39 1023.86 1024.26 1024.57
1004.93 1005.52 1006.14 1006.83 1007.58 1008.14 1008.75 1009.34 1009.98 1010.62 1011.19 1011.81 1012.47 1013.02 1013.57 1014.19 1014.93 1015.68 1016.21 1016.62 1017.01 1017.50 1017.89 1018.33 1018.75 1019.11 1019.47 1019.57 1019.73 1020.00 1020.37 1020.68 1021.02 1021.51 1021.76 1022.17 1022.65 1023.03 1023.31 1023.63 1023.88 1024.33 1024.76
1004.20 1004.98 1005.63 1006.37 1007.15 1007.96 1008.79 1009.64 1010.34 1011.08 1011.77 1012.21 1012.89 1013.51 1014.34 1014.98 1015.62 1016.26 1016.92 1017.50 1018.03 1018.42 1018.81 1018.97 1019.27 1019.62 1019.74 1019.99 1020.30 1020.53 1020.77 1021.07 1021.39 1021.66 1022.05 1022.39 1022.91 1023.14 1023.43 1023.73 1024.03 1024.22 1024.39
1003.41 1004.27 1005.08 1006.00 1006.64 1007.66 1008.64 1009.44 1010.30 1011.03 1011.88 1012.67 1013.35 1014.01 1014.74 1015.46 1016.12 1016.76 1017.36 1017.84 1018.39 1018.98 1019.34 1019.52 1019.62 1019.82 1020.16 1020.40 1020.55 1020.70 1020.81 1021.08 1021.50 1021.84 1022.09 1022.28 1022.70 1023.04 1023.40 1023.66 1023.91 1024.10 1024.27
Wind_Speed
14 14 14 15 16 15 15 15 15 16 16 16 15 14 15 14 15 14 14 15 16 16 16 16 17 16 12 13 12 10 10 7 7 1 2 3 12 12 10 10 9 11 11
13 15 15 16 15 15 15 16 15 15 15 17 15 14 14 15 17 17 17 15 17 17 18 17 17 12 14 14 11 15 14 11 6 9 3 4 6 12 11 13 9 8 9
15 16 15 16 15 16 16 16 15 16 16 16 15 15 15 15 15 16 17 18 19 18 18 18 16 16 14 11 11 12 11 8 7 6 4 3 3 10 9 8 9 8 5
14 15 15 17 16 16 16 16 16 15 15 16 15 15 15 15 15 17 18 16 16 16 16 17 17 17 17 15 13 12 10 9 6 7 4 6 4 6 8 10 8 8 9
14 14 16 16 16 15 15 15 15 15 14 15 14 14 14 14 12 15 16 13 12 13 10 14 15 13 16 15 11 12 12 10 8 8 5 5 4 8 15 10 9 7 4
14 14 15 16 15 14 14 14 14 14 14 12 12 12 12 9 15 16 12 10 12 11 9 12 8 12 15 18 16 17 19 15 12 10 8 11 11 10 9 10 9 8 5
13 14 14 14 14 12 14 14 13 10 7 6 8 9 10 11 14 14 19 11 9 9 9 7 8 6 10 11 11 15 16 20 20 14 14 13 11 15 13 12 8 7 3
12 12 13 13 13 12 13 13 11 6 4 1 3 6 7 7 11 13 11 8 7 5 9 11 11 10 10 12 11 8 6 5 6 3 7 6 5 11 12 6 9 7 7
11 12 13 13 12 12 11 12 10 7 5 4 2 5 6 6 11 11 8 4 4 6 5 9 10 10 16 20 13 13 10 8 11 16 17 19 23 23 14 10 8 9 3
11 13 12 11 11 11 10 10 7 4 6 5 7 4 4 4 8 11 12 6 6 6 8 8 10 9 19 21 15 14 12 9 14 12 9 15 15 17 14 5 9 8 5
9 11 11 10 10 10 8 6 7 5 6 8 9 10 12 9 9 12 17 6 6 7 7 6 6 20 20 19 18 11 14 12 17 13 11 9 9 9 6 5 4 5 3
8 9 10 8 7 7 8 7 7 5 8 9 9 9 8 8 11 14 14 15 12 10 8 7 9 21 21 22 16 25 22 15 9 9 10 8 8 7 5 6 7 8 7
8 9 9 8 8 7 8 7 5 7 7 9 8 8 8 9 9 17 19 21 21 13 9 16 22 22 24 21 23 21 14 9 8 8 9 7 5 6 6 5 7 7 7
7 8 8 7 8 9 7 7 7 7 7 7 8 8 7 8 7 7 10 14 24 17 18 14 19 20 22 17 13 12 7 7 7 8 8 7 6 6 7 4 5 4 4
4 5 5 5 6 9 12 10 8 10 9 7 7 7 8 9 10 14 12 9 10 14 14 11 11 11 12 10 9 9 7 7 9 7 8 7 7 6 6 4 4 4 3
3 3 4 4 5 5 6 10 23 23 24 22 21 15 12 20 23 24 24 22 21 21 12 12 11 10 8 7 8 8 8 9 8 7 8 7 6 6 6 5 5 4 3
3 3 2 3 3 4 5 6 8 14 25 24 23 23 22 19 21 22 24 24 21 18 12 10 9 8 8 8 8 8 9 8 8 8 8 7 7 6 8 6 5 5 6
2 2 1 2 2 3 4 6 6 7 9 8 20 17 20 21 21 20 20 18 13 13 10 9 9 8 8 8 8 8 7 7 8 7 8 7 7 7 6 6 6 5 4
2 2 2 2 3 3 4 5 7 7 7 7 5 11 13 21 23 23 21 10 9 9 8 9 8 7 7 7 7 8 9 8 7 8 7 6 5 6 6 6 5 5 4
3 4 3 3 3 3 4 4 6 6 6 6 6 6 5 5 9 10 9 9 8 8 7 8 7 7 7 8 7 7 7 7 7 6 6 6 6 6 6 6 5 4 3
4 4 4 4 3 3 4 5 5 6 6 5 6 6 10 7 7 7 7 8 8 7 7 7 7 7 6 6 6 7 7 7 6 6 6 6 5 6 4 4 3 3 3
5 5 4 5 4 4 4 4 5 6 7 7 6 8 13 7 7 7 7 7 7 7 6 7 7 6 6 6 6 7 7 7 6 6 5 4 5 4 3 3 3 2 2
6 7 6 5 5 6 5 5 5 6 6 6 5 6 6 6 6 7 7 6 6 7 6 7 7 6 6 6 6 5 6 5 5 4 5 4 3 3 2 3 2 2 2
8 8 7 7 6 6 6 6 5 6 7 6 6 6 6 7 7 8 7 6 7 7 6 6 6 6 4 5 5 5 5 4 4 4 5 4 4 2 2 2 2 2 1
9 8 8 8 8 7 7 6 6 7 6 7 7 7 6 7 7 7 6 6 5 6 6 5 5 6 8 8 6 6 5 7 4 5 3 3 4 4 3 2 1 0 1
10 10 8 8 8 8 7 8 8 8 7 7 7 7 8 7 7 7 6 6 6 5 5 3 6 8 6 4 4 5 5 6 5 5 3 3 3 3 3 2 3 2 2
Wind_Direction
302 298 291 290 289 282 277 274 270 267 262 263 255 248 253 258 247 246 245 240 239 230 221 206 199 199 187 190 187 185 195 193 169 62 123 143 181 171 174 185 170 178 185
302 302 296 298 292 284 278 275 270 265 261 260 254 247 249 243 239 241 246 251 243 239 223 212 200 194 188 183 184 189 198 191 153 158 154 149 185 187 169 179 177 183 183
313 311 304 299 296 294 284 280 273 264 258 253 245 238 238 236 239 231 234 239 244 245 235 213 198 188 187 180 180 186 191 180 180 147 143 138 111 176 160 172 176 175 157
317 310 305 309 306 299 294 286 278 268 258 249 239 231 228 233 234 232 230 232 245 241 246 220 201 186 185 178 179 184 181 168 162 166 140 161 149 158 169 160 174 176 170
315 313 315 309 304 299 294 288 279 270 256 243 236 230 225 226 224 226 224 227 239 245 271 231 195 184 167 172 175 179 165 168 171 164 150 140 149 169 180 172 177 170 158
315 322 312 309 307 305 305 303 298 285 265 236 225 222 223 226 226 216 225 230 232 256 251 236 152 146 164 171 177 173 177 173 177 178 180 179 182 175 169 172 157 151 177
315 324 312 313 306 315 317 315 309 313 302 219 218 215 215 223 217 218 219 231 230 237 253 145 123 145 159 168 172 177 191 188 182 185 180 183 167 172 163 161 172 165 132
320 323 314 315 315 322 327 321 320 316 323 287 220 211 208 216 216 228 222 214 230 232 191 137 138 143 149 141 137 124 111 130 154 144 186 151 112 154 159 150 140 104 75
335 324 321 318 319 326 337 329 327 349 356 339 243 207 219 216 210 215 204 126 144 134 125 118 130 138 148 144 137 121 105 88 105 110 119 123 131 129 124 118 132 138 99
338 325 315 319 325 330 336 335 327 356 23 18 33 33 202 198 207 168 121 107 113 107 79 82 108 134 144 142 134 133 117 123 108 95 98 105 109 117 116 118 141 146 118
337 322 320 333 332 326 340 348 344 355 38 41 49 50 54 58 69 108 120 104 118 103 97 94 114 133 131 128 126 127 124 122 117 109 104 97 86 81 74 75 79 127 130
342 324 329 336 334 340 351 348 359 16 43 45 49 52 49 53 74 85 98 107 111 103 99 105 114 116 114 113 109 118 114 109 104 106 105 98 98 94 85 73 64 70 56
359 333 339 349 349 346 4 0 359 28 42 53 45 48 41 42 48 71 91 94 92 90 94 99 104 104 102 99 100 101 103 101 111 108 97 88 80 99 107 84 75 84 82
18 346 349 1 14 19 25 18 15 27 45 47 55 57 55 57 61 68 81 86 88 91 91 87 90 91 87 82 77 75 82 89 96 97 99 102 113 100 82 72 94 94 84
13 353 354 8 17 46 50 36 40 41 44 55 53 50 63 62 62 70 76 85 91 99 99 89 84 81 77 80 81 82 86 87 88 94 99 99 90 88 84 75 64 78 70
17 26 5 9 27 35 58 63 56 60 59 59 66 75 75 82 79 79 81 83 88 93 83 85 81 83 92 91 86 77 65 69 71 80 83 90 101 88 91 81 74 71 74
81 359 23 18 30 32 48 57 77 63 64 63 63 66 72 79 74 76 79 76 78 88 83 81 81 79 79 76 75 75 79 67 72 71 72 79 77 63 68 63 59 45 53
149 106 20 15 33 62 58 64 56 63 69 56 52 66 72 78 82 85 88 81 66 58 69 80 83 79 79 82 87 85 83 78 73 73 66 60 56 70 71 65 51 48 57
174 144 116 69 46 62 70 76 83 79 72 63 51 45 42 63 67 68 69 73 85 83 81 81 78 81 81 80 74 67 63 65 67 70 66 70 78 93 92 104 95 69 72
160 143 141 124 125 101 89 87 88 80 71 52 48 45 31 55 60 62 59 70 76 75 73 75 67 66 68 73 79 86 89 84 86 91 90 84 80 84 84 72 48 70 50
164 152 149 128 125 119 112 108 112 110 97 76 59 48 71 74 76 70 68 63 67 68 70 73 73 73 75 82 86 87 89 90 89 90 84 73 73 81 73 80 93 78 56
168 158 163 145 130 131 119 114 119 120 119 114 95 80 82 69 72 72 69 63 61 63 65 78 76 68 69 79 87 91 89 87 86 89 90 85 82 72 72 77 81 96 103
167 161 148 142 135 129 132 124 130 133 122 117 119 106 92 89 88 88 88 87 83 81 74 76 78 76 59 58 61 82 96 92 86 89 90 89 90 93 75 92 88 46 66
169 163 156 147 147 152 145 142 122 115 130 125 117 105 102 98 91 84 81 80 80 78 77 79 81 89 84 82 76 70 76 80 73 81 91 104 103 109 105 109 145 146 156
168 166 159 159 156 154 139 133 136 138 136 131 126 116 110 108 109 107 101 94 94 95 86 89 92 95 84 84 81 86 107 102 105 117 101 98 115 137 143 146 125 130 172
171 166 160 159 153 148 151 148 148 143 141 134 130 128 129 127 126 120 117 115 107 98 100 86 94 94 93 87 89 110 140 155 164 177 172 167 151 157 149 171 186 210 245